Home > Time Zones > World Clock > Weather > Mali > Bamako > Past weeks

Flag for Mali Weather past 2 weeks in Bamako, Mali

Now
73 °F

Thunderstorms. Passing clouds.


Feels Like: 68 °F
Forecast: N/A
Wind: 1 mph from North

Location: Bamako / Senou

Current Time: Sep 22, 2014 at 10:41:53 PM

Latest Report: Sep 22, 2014 at 10:00 PM


Visibility: N/A

Pressure: 30.01 "Hg

Humidity: 100%

Dew point: 73 °F

Location of BamakoLocation

Historic Weather in Bamako — Graph

°F

Bamako temperature yesterday

Maximum temperature yesterday: 90 °F (at 3:30 PM)
Minimum temperature yesterday: 70 °F (at 8:30 AM)
Average temperature yesterday: 78 °F

Past Weeks' High & Low Weather Summary

 TemperatureHumidityPressure
High93 °F (Sep 12, 4:00 PM)100% (Sep 7, 9:00 PM)30.09 "Hg (Sep 7, 9:00 PM)
Low68 °F (Sep 10, 1:00 PM)44% (Sep 18, 3:30 PM)29.83 "Hg (Sep 18, 5:00 PM)
Average78 °F86%29.97 "Hg
* Reported Sep 7 9:00 PM — Sep 22 9:30 PM, Bamako, Weather by CustomWeather, © 2014

Note: Actual official high and low records may vary slightly from our data, if they occured in-between our weather recording intervals... More about our weather records

Advertising

Bamako weather history for previous 24 hours

 ConditionsComfort  
Time TempWeatherWind HumidityBarometerVisibility
9:30 PM
Sep 22
73 °FThunderstorms. Passing clouds.6 mph94%30.01 "Hg5 mi
9:00 PM79 °FStrong thunderstorms. Passing clouds.12 mph74%30.01 "Hg4 mi
8:30 PM79 °FThunderstorms. Passing clouds.1 mph94%29.98 "HgN/A
8:00 PM79 °FThunderstorms. Passing clouds.2 mph94%29.98 "HgN/A
7:30 PM81 °FThunderstorms. Passing clouds.5 mph84%29.95 "HgN/A
7:00 PM82 °FThunderstorms. Passing clouds.5 mph84%29.95 "HgN/A
6:30 PM82 °FPassing clouds.No wind79%29.92 "HgN/A
6:00 PM84 °FScattered clouds.3 mph79%29.92 "HgN/A
5:30 PM88 °FScattered clouds.5 mph62%29.89 "HgN/A
5:00 PM88 °FScattered clouds.7 mph59%29.89 "HgN/A
4:30 PM90 °FScattered clouds.5 mph55%29.89 "HgN/A
4:00 PM90 °FScattered clouds.1 mph55%29.89 "HgN/A
3:30 PM91 °FScattered clouds.1 mph52%29.92 "HgN/A
3:00 PM90 °FScattered clouds.3 mph59%29.92 "HgN/A
2:30 PM90 °FScattered clouds.2 mph59%29.92 "HgN/A
2:00 PM90 °FScattered clouds.No wind59%29.95 "HgN/A
1:30 PM90 °FScattered clouds.2 mph55%29.95 "HgN/A
1:00 PM90 °FScattered clouds.5 mph55%29.95 "HgN/A
12:30 PM88 °FScattered clouds.3 mph62%29.98 "HgN/A
12:00 PM86 °FScattered clouds.2 mph62%29.98 "HgN/A
11:30 AM86 °FScattered clouds.3 mph62%30.01 "HgN/A
11:00 AM84 °FScattered clouds.5 mph66%30.01 "HgN/A
10:30 AM82 °FScattered clouds.5 mph74%30.01 "HgN/A
10:00 AM82 °FScattered clouds.3 mph70%30.01 "HgN/A
9:30 AM81 °FScattered clouds.5 mph74%30.01 "HgN/A
9:00 AM79 °FScattered clouds.5 mph79%30.01 "HgN/A
8:30 AM77 °FScattered clouds.2 mph83%30.01 "HgN/A
8:00 AM75 °FScattered clouds.1 mph94%30.01 "HgN/A
7:30 AM73 °FScattered clouds.No wind100%29.98 "HgN/A
7:00 AM72 °FScattered clouds.1 mph100%29.98 "HgN/A
6:30 AM70 °FScattered clouds.No wind100%29.98 "HgN/A
6:00 AM70 °FPassing clouds.No wind100%29.98 "HgN/A
5:30 AM72 °FPassing clouds.No wind100%29.95 "HgN/A
5:00 AM72 °FPassing clouds.3 mph100%29.95 "HgN/A
4:30 AM72 °FPassing clouds.2 mph100%29.95 "HgN/A
4:00 AM73 °FPassing clouds.2 mph100%29.92 "HgN/A
3:30 AM73 °FPassing clouds.2 mph100%29.95 "HgN/A
3:00 AM72 °FThunderstorms. Passing clouds.5 mph100%29.92 "HgN/A
2:30 AM72 °FThunderstorms. Passing clouds.6 mph100%29.95 "HgN/A
2:00 AM72 °FThunderstorms. Passing clouds.3 mph100%29.98 "HgN/A
1:30 AM72 °FThunderstorms. Partly cloudy.6 mph100%29.95 "HgN/A
1:00 AM72 °FThunderstorms. Partly cloudy.3 mph100%29.95 "HgN/A
12:30 AM73 °FThunderstorms. Partly cloudy.No wind94%30.01 "HgN/A
12:00 AM73 °FThunderstorms. Partly cloudy.8 mph94%30.04 "HgN/A
11:30 PM
Sep 21
75 °FThunderstorms. Partly cloudy.10 mph94%30.04 "HgN/A
11:00 PM75 °FThunderstorms. Passing clouds.9 mph100%30.04 "HgN/A
10:30 PM75 °FThunderstorms. Passing clouds.3 mph100%30.01 "HgN/A
10:00 PM75 °FThunderstorms. Passing clouds.5 mph100%30.01 "HgN/A
Weather by CustomWeather, © 2014

See weather overviewHow to use our weather pages